This is the latest recevied weather packets stored in our database for station/object WA7SB-7. If no packets are shown the sender has not sent any weather packets the latest 10 day(s).
| Time | Temp. | Humidity | Pressure | Rain* | Wind** | Luminosity | Snow |
|---|---|---|---|---|---|---|---|
| 1787600059 | 18.33° C | 78% | 1014.3 hPa | 0 mm | - | - | - |
| 1787599821 | 18.89° C | 78% | 1014.2 hPa | 0 mm | - | - | - |
| 1787599762 | 18.89° C | 78% | 1014.2 hPa | 0 mm | - | - | - |
| 1787599524 | 18.89° C | 76% | 1014.3 hPa | 0 mm | - | - | - |
| 1787599465 | 18.89° C | 78% | 1014.3 hPa | 0 mm | - | - | - |
| 1787599228 | 18.33° C | 79% | 1014.4 hPa | 0 mm | - | - | - |
| 1787599169 | 18.33° C | 79% | 1014.3 hPa | 0 mm | - | - | - |
| 1787598929 | 18.33° C | 77% | 1014.3 hPa | 0 mm | - | - | - |
| 1787598874 | 18.33° C | 76% | 1014.4 hPa | 0 mm | - | - | - |
| 1787598633 | 18.89° C | 76% | 1014.4 hPa | 0 mm | - | - | - |
| 1787598557 | 18.89° C | 75% | 1014.4 hPa | 0 mm | - | - | - |
| 1787598315 | 18.89° C | 77% | 1014.6 hPa | 0 mm | - | - | - |
| 1787598257 | 18.89° C | 77% | 1014.6 hPa | 0 mm | - | - | - |
| 1787598027 | 18.89° C | 75% | 1014.5 hPa | 0 mm | - | - | - |
| 1787597968 | 18.89° C | 75% | 1014.6 hPa | 0 mm | - | - | - |
| 1787597733 | 19.44° C | 76% | 1014.5 hPa | 0 mm | - | - | - |
| 1787597654 | 18.89° C | 78% | 1014.5 hPa | 0 mm | - | - | - |
| 1787597416 | 18.89° C | 76% | 1014.5 hPa | 0 mm | - | - | - |
| 1787597358 | 18.89° C | 74% | 1014.5 hPa | 0 mm | - | - | - |
| 1787597121 | 18.89° C | 78% | 1014.4 hPa | 0 mm | - | - | - |
| 1787597062 | 18.89° C | 77% | 1014.4 hPa | 0 mm | - | - | - |
| 1787596825 | 18.89° C | 77% | 1014.5 hPa | 0 mm | - | - | - |
| 1787596765 | 18.89° C | 76% | 1014.6 hPa | 0 mm | - | - | - |
| 1787596528 | 18.89° C | 79% | 1014.4 hPa | 0 mm | - | - | - |
| 1787596466 | 18.89° C | 80% | 1014.5 hPa | 0 mm | - | - | - |
* Rain latest hour (hover to see other rain measurements)
** Current wind speed in m/s (hover to see current wind gust speed)